Terminal Aerodrome Forecast
Issued by NWS Duluth, MN

Home | Current Version | Previous Version | Text Only | Print | Product List | Glossary On
Versions: 1 2 3 4 5 6 7 8 9 10 11 12 13 14 15 16 17 18 19 20 21 22 23 24 25 26 27 28 29 30 31 32 33 34 35 36 37 38 39 40 41
000
FTUS43 KDLH 260300 AAA
TAFDLH
TAF AMD
KDLH 260332Z 2604/2624 29013KT P6SM SCT028 OVC040
      TEMPO 2606/2609 BKN028
     FM261200 29008KT P6SM SCT045
     FM261600 30010G16KT P6SM SCT050
     FM261900 29013G20KT P6SM SCT040=

USA.gov is the U.S. government's official web portal to all federal, state and local government web resources and services.